FW7889 Weather Reports


time (UTC)temp
C
wind
direction
speed
KPH
gust
KPH
rain 1hr
cm
rain 24hr
cm
rain mn
cm
humidity
%
barometer
mb
20260505183454 18 273 4.8 8.0 0.00 0.10 0.10 73 1059.8
20260505182453 19 266 8.0 9.7 0.00 0.10 0.10 65 1059.0
20260505181453 20 241 8.0 9.7 0.00 0.10 0.10 64 1059.1
20260505180452 20 248 1.6 3.2 0.00 0.10 0.10 65 1058.9
20260505175450 19 247 6.4 9.7 0.00 0.10 0.10 65 1058.9
20260505174450 19 261 6.4 8.0 0.00 0.10 0.10 66 1059.0
20260505173449 20 246 8.0 9.7 0.00 0.10 0.10 64 1059.0
20260505172445 20 245 1.6 1.6 0.00 0.10 0.10 65 1059.2
20260505171441 20 253 8.0 9.7 0.00 0.10 0.10 64 1058.9
20260505170440 20 233 11.3 14.5 0.00 0.10 0.10 63 1058.9
20260505165437 20 229 11.3 12.9 0.00 0.10 0.10 63 1058.7
20260505164436 20 251 4.8 4.8 0.00 0.10 0.10 64 1058.7
20260505163432 20 254 4.8 4.8 0.00 0.10 0.10 64 1058.8
20260505162432 20 252 9.7 11.3 0.00 0.10 0.10 64 1058.9
20260505161432 20 236 17.7 20.9 0.00 0.10 0.10 63 1058.9
20260505160428 20 233 17.7 22.5 0.00 0.10 0.10 63 1058.9
20260505152425 20 263 8.0 11.3 0.00 0.10 0.10 64 1059.1
20260505151421 20 263 12.9 16.1 0.00 0.10 0.10 64 1059.2
20260505150421 20 242 16.1 20.9 0.00 0.10 0.10 65 1059.0
20260505140409 18 265 6.4 9.7 0.00 0.10 0.10 71 1059.2
20260505124355 15 274 4.8 8.0 0.00 0.10 0.10 82 1059.5
20260505123352 14 250 4.8 4.8 0.00 0.10 0.10 83 1059.7
20260505122352 13 273 1.6 3.2 0.00 0.10 0.10 85 1059.7
20260505121351 13 261 4.8 4.8 0.00 0.10 0.10 86 1059.5
20260505120349 13 269 6.4 8.0 0.00 0.10 0.10 87 1059.6
20260505115345 13 261 6.4 8.0 0.00 0.10 0.10 87 1059.7
20260505114345 13 261 4.8 4.8 0.00 0.10 0.10 87 1059.3
20260505113344 13 260 3.2 3.2 0.00 0.10 0.10 88 1059.7
20260505112343 12 258 3.2 3.2 0.00 0.10 0.10 98 1059.0
20260505111340 11 252 0.0 1.6 0.00 0.10 0.10 99 1059.3
20260505110339 11 250 1.6 3.2 0.00 0.10 0.10 99 1059.6
20260505101333 11 265 1.6 1.6 0.00 0.10 0.10 99 1059.3
20260505100332 11 225 1.6 1.6 0.00 0.10 0.10 99 1059.3
20260505095331 11 245 0.0 0.0 0.00 0.08 0.08 99 1059.2
20260505094330 11 243 1.6 1.6 0.43 0.08 0.08 96 1059.7
20260505093329 12 265 6.4 9.7 0.00 0.00 0.00 87 1059.9
20260505092324 12 267 3.2 3.2 0.00 0.00 0.00 84 1059.5
20260505091319 11 267 1.6 3.2 0.00 0.00 0.00 86 1059.7
20260505090315 10 272 0.0 1.6 0.00 0.00 0.00 93 1059.5
20260505085310 10 269 1.6 1.6 0.00 0.00 0.00 95 1059.3
20260505084306 11 266 1.6 1.6 0.00 0.00 0.00 92 1059.7
20260505083306 11 269 0.0 0.0 0.00 0.00 0.00 88 1059.9
20260505082305 11 268 0.0 0.0 0.00 0.00 0.00 90 1059.9
20260505081303 11 275 1.6 1.6 0.00 0.00 0.00 92 1059.9
20260505080302 10 272 1.6 1.6 0.00 0.00 0.00 95 1059.7
20260505075301 11 272 0.0 1.6 0.00 0.00 0.00 93 1059.8
20260505074301 11 278 0.0 1.6 0.00 0.00 0.00 91 1059.8
20260505073256 13 266 0.0 0.0 0.00 0.00 0.00 79 1059.8
20260505072255 13 256 1.6 3.2 0.00 0.00 0.00 70 1059.6
20260505071253 13 204 3.2 3.2 0.00 0.00 0.00 71 1059.1
20260505070253 13 262 1.6 3.2 0.00 0.00 0.00 70 1059.2
20260505065251 13 259 0.0 0.0 0.00 0.00 0.00 70 1059.5
20260505064246 13 205 1.6 1.6 0.00 0.00 0.00 69 1059.5
20260505063246 13 264 1.6 1.6 0.00 0.00 0.00 69 1059.2
20260505062246 13 266 1.6 1.6 0.00 0.00 0.00 68 1059.2
20260505061240 13 267 3.2 3.2 0.00 0.00 0.00 67 1059.5
20260505060240 13 269 3.2 3.2 0.00 0.00 0.00 67 1059.7
20260505055238 13 271 1.6 1.6 0.00 0.00 0.00 68 1059.6
20260505054233 13 249 1.6 1.6 0.00 0.00 0.00 68 1059.5
20260505053233 13 278 0.0 0.0 0.00 0.00 0.00 67 1059.7
20260505052233 13 272 1.6 1.6 0.00 0.00 0.00 67 1059.8
20260505051228 13 256 1.6 1.6 0.00 0.00 0.00 67 1059.3
20260505050224 14 276 0.0 1.6 0.00 0.00 0.00 65 1059.8
20260505041220 14 270 0.0 1.6 0.00 0.00 0.00 63 1059.7
20260505040220 14 255 3.2 3.2 0.00 0.00 0.00 63 1059.5
20260505035218 14 272 0.0 0.0 0.00 0.00 0.00 64 1059.2
20260505034218 13 230 0.0 0.0 0.00 0.00 0.00 66 1059.1
20260505033213 13 220 1.6 1.6 0.00 0.00 0.00 66 1059.3
20260505032212 13 255 0.0 0.0 0.00 0.00 0.00 66 1059.1
20260505031211 13 225 3.2 3.2 0.00 0.00 0.00 67 1059.2
20260505030210 12 269 0.0 1.6 0.00 0.00 0.00 71 1059.5
20260505025205 10 274 1.6 1.6 0.00 0.00 0.00 76 1059.6
20260505024205 10 281 0.0 1.6 0.00 0.00 0.00 81 1059.6
20260505023200 11 294 1.6 1.6 0.00 0.00 0.00 79 1059.7
20260505022159 11 285 1.6 1.6 0.00 0.00 0.00 78 1059.6
20260505021159 11 304 1.6 3.2 0.00 0.00 0.00 77 1059.7
20260505020156 11 283 1.6 1.6 0.00 0.00 0.00 79 1059.8
20260505015156 11 305 1.6 3.2 0.00 0.00 0.00 80 1059.9
20260505014156 11 294 1.6 1.6 0.00 0.00 0.00 77 1060.0
20260505013156 11 279 0.0 0.0 0.00 0.00 0.00 79 1059.9
20260505012152 11 298 1.6 1.6 0.00 0.00 0.00 77 1059.7
20260505011149 12 264 0.0 0.0 0.00 0.00 0.00 78 1059.8
20260505010148 12 264 0.0 0.0 0.00 0.00 0.00 76 1059.8
20260505005147 12 267 0.0 0.0 0.00 0.00 0.00 74 1060.1
20260505004146 12 264 0.0 0.0 0.00 0.00 0.00 73 1059.9
20260505003141 13 264 0.0 0.0 0.00 0.00 0.00 70 1059.8
20260505002141 13 264 0.0 0.0 0.00 0.00 0.00 71 1059.6
20260505001141 15 264 0.0 0.0 0.00 0.00 0.00 66 1059.6
20260505000136 15 264 0.0 0.0 0.00 0.00 0.00 62 1059.6
20260504235134 16 264 0.0 0.0 0.00 0.00 0.00 57 1059.7
20260504234129 17 264 1.6 1.6 0.00 0.00 0.00 53 1059.8
20260504233126 17 256 4.8 4.8 0.00 0.00 0.00 52 1059.5
20260504232121 18 259 1.6 1.6 0.00 0.00 0.00 51 1059.6
20260504231120 18 262 4.8 4.8 0.00 0.00 0.00 51 1059.6
20260504230115 18 243 6.4 8.0 0.00 0.00 0.00 50 1059.5
20260504225115 18 246 6.4 9.7 0.00 0.00 0.00 50 1059.6
20260504224114 18 248 3.2 8.0 0.00 0.00 0.00 50 1059.5
20260504223113 18 234 11.3 11.3 0.00 0.00 0.00 50 1059.5
20260504222113 18 262 4.8 4.8 0.00 0.00 0.00 51 1059.7
20260504221113 18 251 11.3 12.9 0.00 0.00 0.00 50 1059.8
20260504220113 18 259 8.0 11.3 0.00 0.00 0.00 50 1059.3
20260504215113 18 282 4.8 4.8 0.00 0.00 0.00 51 1059.5
20260504214110 18 243 6.4 9.7 0.00 0.00 0.00 50 1059.2
20260504213110 18 237 8.0 11.3 0.00 0.00 0.00 49 1059.3
20260504212109 18 287 1.6 1.6 0.00 0.00 0.00 50 1059.6
20260504211109 18 215 8.0 12.9 0.00 0.00 0.00 49 1059.8
20260504210108 18 249 4.8 8.0 0.00 0.00 0.00 52 1059.5
20260504205103 18 247 9.7 9.7 0.00 0.00 0.00 53 1059.6
20260504204100 18 235 4.8 8.0 0.00 0.00 0.00 51 1059.8
20260504203055 18 270 3.2 3.2 0.00 0.00 0.00 51 1060.0
20260504202054 18 230 17.7 22.5 0.00 0.00 0.00 51 1059.8
20260504201048 18 300 8.0 9.7 0.00 0.00 0.00 51 1059.8
20260504200047 18 252 12.9 16.1 0.00 0.00 0.00 51 1059.9
20260504195046 17 266 8.0 11.3 0.00 0.00 0.00 52 1060.0
20260504194043 17 256 4.8 8.0 0.00 0.00 0.00 52 1060.1
20260504193039 17 247 12.9 14.5 0.00 0.00 0.00 53 1060.0
20260504192035 17 226 8.0 9.7 0.00 0.00 0.00 55 1060.0
20260504191034 17 234 11.3 12.9 0.00 0.00 0.00 54 1060.3
20260504190032 17 241 16.1 17.7 0.00 0.00 0.00 53 1060.5
20260504185032 17 248 14.5 16.1 0.00 0.00 0.00 54 1060.5
20260504184028 17 278 3.2 3.2 0.00 0.00 0.00 56 1060.3